Wind_Speed
62 62 61 65 65 61 63 63 59 61 63 62 60 60 59 62 62 62 59 59 59 57 56 56 52 53 53 51 48 45 46 47 47 46 42 41 40 39 38 38 39 38 40 41 42 44 48 50 52
66 68 68 67 67 67 65 66 62 62 64 65 65 62 63 63 63 64 64 63 63 62 58 60 57 54 55 55 53 52 51 50 50 49 47 46 45 45 42 42 42 43 44 48 48 51 54 54 55
70 70 71 69 67 68 69 67 63 64 67 68 69 68 65 66 64 66 67 67 66 66 63 61 60 58 58 58 57 56 54 54 54 53 51 49 48 49 48 46 43 47 48 50 53 56 57 55 53
70 68 69 64 65 68 71 68 67 67 65 69 73 70 68 69 70 70 70 71 70 69 68 65 64 62 61 60 60 59 58 56 55 55 53 53 51 49 49 50 49 48 50 54 57 58 56 52 56
65 63 63 64 67 72 72 69 68 67 68 68 68 70 72 71 74 74 76 75 69 72 72 71 69 66 64 63 62 61 60 59 58 59 58 55 53 52 51 51 50 53 54 53 52 50 51 55 59
61 60 57 59 66 67 69 68 68 67 67 68 68 68 70 73 74 76 78 79 79 67 75 77 73 70 68 66 65 64 64 63 63 62 62 60 57 55 53 53 57 58 60 60 57 58 56 59 60
56 53 52 54 60 61 64 62 65 65 63 66 66 65 65 67 69 74 75 76 78 77 64 72 79 74 71 70 69 66 66 67 66 66 64 62 61 59 57 56 53 60 61 54 52 56 57 59 65
54 53 52 56 62 62 59 57 60 60 59 58 61 63 62 62 62 65 69 72 74 76 78 69 62 69 78 73 71 68 68 68 69 70 70 67 65 65 64 57 59 55 52 56 58 62 64 66 70
52 50 51 60 64 63 59 55 54 56 58 59 62 64 65 63 62 61 63 68 73 75 76 81 78 74 66 66 75 73 71 70 69 70 71 70 70 66 65 62 61 65 63 66 68 68 70 70 72
49 47 53 58 60 60 58 54 53 54 56 59 60 64 66 66 62 61 60 62 69 70 73 77 79 77 77 75 72 70 70 70 71 69 69 67 66 60 60 59 63 64 66 67 66 69 69 71 73
44 48 51 54 56 56 56 53 51 52 54 58 59 62 66 66 66 64 64 63 66 69 74 72 75 77 80 79 78 77 75 75 76 74 74 69 70 72 72 69 65 65 64 66 68 70 73 71 69
43 48 51 55 56 56 56 54 53 52 55 58 56 59 63 67 68 68 67 66 66 66 68 76 75 74 73 75 76 78 79 80 79 77 74 72 72 70 70 69 71 71 71 70 72 71 72 68 67
43 50 48 49 53 57 57 55 53 51 56 56 55 54 59 63 68 70 69 69 70 70 68 67 73 75 73 73 74 75 76 79 80 79 77 74 72 72 73 70 70 71 73 71 72 70 68 67 67
47 46 48 48 49 53 52 54 48 54 58 57 54 53 55 58 62 67 71 73 72 74 72 66 65 68 72 73 74 74 75 76 76 77 76 74 73 71 71 70 70 70 70 69 68 66 67 67 65
53 53 54 59 54 47 51 46 48 58 53 54 56 54 54 56 58 62 68 73 75 76 74 71 66 63 65 65 66 69 72 76 78 78 77 79 76 70 67 66 65 66 67 65 64 66 67 69 63
60 57 60 60 60 55 52 41 52 53 54 52 54 53 52 53 57 61 64 68 72 75 76 72 68 66 64 64 63 62 62 63 66 71 73 74 74 72 67 64 63 64 62 63 64 67 69 64 58
66 63 60 61 63 61 58 47 51 55 53 53 54 52 52 53 53 58 63 63 69 72 74 73 70 69 66 63 63 62 61 57 55 56 58 59 60 61 63 65 63 64 64 66 69 69 66 59 54
66 63 64 64 68 68 64 56 55 53 52 54 54 55 55 55 55 55 58 61 66 70 73 72 72 70 68 66 64 60 60 58 55 54 53 53 50 54 60 64 65 66 68 68 66 64 58 54 51
70 68 68 70 75 76 70 60 56 60 53 52 54 54 55 56 58 57 55 58 65 69 70 69 71 71 68 67 65 60 57 54 55 52 51 50 50 54 57 58 61 62 61 60 60 55 53 52 48
72 74 75 75 77 79 75 60 60 61 58 55 55 55 54 55 57 58 58 55 64 69 69 68 69 70 68 67 65 61 57 55 53 50 48 48 47 51 55 56 57 55 54 55 53 51 50 48 49
78 79 82 84 83 81 78 68 67 66 60 58 61 57 56 54 56 56 57 54 59 67 70 69 67 67 67 66 64 62 59 56 53 51 49 48 49 50 50 50 50 51 52 51 50 48 46 48 51
81 86 87 86 87 83 83 75 71 71 69 63 60 65 61 57 56 58 57 53 55 63 67 68 66 64 65 66 64 62 58 56 51 50 48 49 50 51 51 49 49 50 50 48 48 46 49 52 55
86 88 89 89 89 87 81 78 64 67 67 68 66 67 67 63 60 60 58 52 55 58 62 63 65 62 62 64 65 58 59 56 51 49 49 50 50 49 48 48 47 47 47 47 48 50 53 56 60
84 82 81 81 80 68 72 78 55 71 77 83 83 78 74 70 66 63 59 52 54 56 56 57 61 63 60 62 63 62 58 54 50 50 50 50 50 48 47 45 46 48 48 49 52 54 57 60 64
70 73 76 78 81 73 77 81 57 66 72 77 87 84 80 73 70 67 58 51 54 54 53 55 59 62 59 61 62 62 60 54 50 51 49 51 50 49 48 48 50 51 52 54 56 59 63 66 69
75 80 83 82 80 78 84 64 60 74 74 82 84 83 76 70 70 67 58 52 55 56 52 50 51 57 59 60 62 61 59 53 51 51 50 51 50 50 51 52 52 53 56 58 61 64 68 72 75
81 86 91 86 82 73 71 58 54 63 71 76 80 83 78 67 64 63 54 53 52 56 56 52 48 53 58 59 61 60 58 54 52 50 51 52 52 53 54 54 54 57 60 62 65 69 73 76 80
83 81 80 79 72 70 63 57 57 59 68 74 78 79 77 66 60 60 51 50 52 55 55 53 48 53 58 59 60 61 58 55 52 51 53 54 54 55 57 57 60 61 63 67 71 75 79 83 86
59 58 61 60 57 55 49 54 62 63 72 75 78 76 74 66 58 55 48 50 52 54 52 51 50 54 57 58 59 60 57 54 53 52 54 55 56 57 58 61 63 65 68 72 75 79 83 86 90
42 40 41 41 42 39 40 42 62 76 80 77 76 75 70 65 58 52 46 50 54 54 51 49 49 54 58 59 59 58 56 54 53 53 55 57 57 58 61 63 66 68 72 75 78 82 86 90 94
Wind_Direction
251 255 254 257 263 264 261 261 257 256 256 256 255 254 253 254 255 257 251 250 256 259 261 260 259 260 262 261 257 256 258 260 264 270 274 275 277 274 277 283 288 284 275 275 277 281 287 291 293
254 257 259 258 260 259 260 258 255 254 253 254 256 254 254 253 252 254 255 249 249 252 255 257 256 257 259 261 261 258 259 261 265 268 271 274 277 278 277 279 285 287 281 275 281 286 290 293 294
256 258 259 260 258 258 259 258 256 254 253 253 253 254 253 251 252 251 249 247 246 247 248 249 252 253 256 259 261 261 260 261 263 266 269 271 273 275 275 277 280 285 285 282 283 286 289 291 293
255 257 257 256 256 256 255 256 256 255 254 254 253 252 251 250 248 248 244 244 247 244 245 245 246 249 251 254 257 261 261 261 263 265 267 271 271 273 274 275 277 280 284 285 285 288 287 288 295
256 257 256 255 253 254 255 253 253 252 252 252 252 251 251 248 246 244 243 243 243 247 246 247 245 246 248 251 254 257 260 262 263 265 267 270 272 272 273 272 277 279 280 281 284 285 287 291 299
257 254 253 252 254 254 253 252 251 249 249 250 252 252 250 248 245 244 242 240 243 241 248 248 246 246 246 249 251 254 258 259 262 265 266 269 271 273 273 274 278 280 281 286 287 288 294 297 298
254 251 250 252 252 251 250 250 248 247 246 248 249 247 247 248 248 245 244 245 243 241 242 251 246 249 248 250 251 253 255 258 262 264 266 269 271 275 277 278 286 284 286 288 291 291 292 294 297
250 249 251 254 254 250 248 248 249 250 249 247 247 247 246 247 249 248 246 242 246 244 242 244 245 253 248 251 252 255 258 260 262 264 265 267 271 275 280 283 285 279 282 287 291 293 295 297 297
251 251 252 252 255 255 252 253 252 252 253 250 248 246 247 248 249 251 251 246 245 246 246 245 247 247 248 256 255 255 257 260 264 266 268 269 272 274 279 276 278 278 281 286 288 289 293 296 297
251 253 255 254 257 259 258 252 251 251 251 250 248 247 245 245 247 248 250 250 247 246 249 249 249 250 250 250 253 256 257 258 261 265 267 268 270 272 276 279 277 278 280 284 286 290 294 294 300
254 253 252 254 257 259 259 257 252 251 252 247 247 246 246 245 244 244 246 248 249 248 244 246 250 250 250 252 254 256 257 260 262 264 267 267 269 273 278 277 279 281 282 283 287 291 293 298 301
254 255 255 258 260 260 259 256 252 249 250 248 246 245 247 247 245 245 245 246 250 250 249 246 246 250 252 253 255 257 259 260 262 265 265 269 271 274 275 277 278 278 282 285 288 291 295 296 300
254 257 255 258 260 259 258 256 252 250 250 254 251 250 249 248 247 245 245 245 247 250 251 251 250 248 251 253 255 258 260 262 263 265 265 269 272 273 274 277 278 278 280 284 287 290 292 295 299
256 254 254 259 260 261 259 259 258 252 249 253 255 254 252 251 250 248 247 246 245 248 249 250 251 251 252 253 255 257 259 262 263 266 268 270 273 275 275 275 279 279 281 283 285 287 292 295 296
257 257 254 256 261 262 262 263 258 254 253 252 251 250 251 251 250 250 249 249 247 247 247 248 250 252 253 255 258 261 262 264 265 266 267 267 270 274 276 276 277 278 280 280 282 285 290 293 292
259 254 253 258 263 262 264 268 262 257 255 253 254 254 255 256 253 251 250 248 249 250 249 248 249 251 254 256 258 261 263 265 267 268 269 270 272 275 277 274 274 278 277 277 280 284 289 289 287
257 254 254 260 260 264 265 266 269 260 256 253 251 252 254 254 253 252 250 249 251 249 250 248 249 250 252 255 258 261 266 269 271 272 273 273 273 272 272 273 275 275 273 278 281 283 286 284 283
256 255 257 259 259 259 262 266 269 271 265 263 259 253 253 254 254 253 253 249 250 252 251 249 247 248 251 253 256 260 264 268 271 275 274 274 274 270 269 268 269 269 272 277 279 281 280 279 279
253 255 255 254 254 257 260 266 267 274 271 265 261 259 255 257 256 254 253 252 247 249 251 250 248 247 247 250 254 257 263 265 269 272 273 276 274 272 270 269 270 272 272 274 277 278 278 276 279
255 255 256 256 256 258 262 267 264 272 267 261 263 263 260 257 258 258 254 252 247 245 247 249 247 245 245 247 250 254 258 262 265 269 273 274 276 274 273 271 270 271 272 274 276 275 273 275 279
256 254 254 255 257 260 262 265 265 267 263 264 261 260 259 257 255 257 256 255 250 242 241 243 246 245 243 244 247 250 254 259 263 267 270 273 274 274 271 271 273 273 273 273 273 270 272 275 278
256 259 258 258 259 259 263 258 259 261 263 260 259 256 255 254 254 255 256 254 250 245 240 239 242 244 242 242 243 247 252 255 260 265 269 270 271 271 272 273 273 272 271 269 269 272 273 277 280
258 260 265 265 263 262 264 265 257 257 258 256 254 254 252 255 254 253 254 251 247 245 240 236 238 241 241 241 242 242 247 252 258 263 266 268 270 270 272 273 274 271 272 270 271 274 277 280 282
266 268 268 268 267 265 262 260 248 251 248 255 256 255 250 251 254 250 252 252 245 244 241 236 234 236 238 238 240 241 244 249 256 260 263 266 267 269 270 274 273 272 273 274 275 277 279 281 283
269 268 267 266 267 267 263 260 255 252 252 250 253 250 247 245 248 249 249 250 243 242 240 238 234 234 236 236 238 241 243 246 252 258 259 262 264 267 269 271 273 275 276 277 278 280 282 283 285
271 271 272 273 274 270 268 264 261 257 247 244 243 246 244 242 246 246 245 244 240 238 239 239 236 233 235 236 235 238 242 244 249 256 257 260 263 266 268 270 274 276 278 280 282 284 286 287 288
275 278 278 277 274 268 264 260 251 244 236 238 234 236 239 236 234 239 244 243 239 236 238 239 234 231 232 236 235 237 239 242 247 254 257 259 262 266 270 273 277 277 279 283 285 287 288 289 290
280 278 277 276 272 267 260 245 235 237 232 225 231 228 233 229 226 236 238 243 240 239 242 243 237 231 230 232 233 236 238 241 247 254 256 259 263 266 270 274 276 279 283 284 286 287 289 290 292
286 280 277 275 271 267 261 246 230 224 226 223 221 223 225 224 219 230 232 235 238 242 247 246 238 231 229 231 232 235 238 241 247 254 257 260 264 267 271 273 277 281 283 285 287 289 290 292 293
293 295 293 285 276 266 252 241 226 223 222 221 219 220 219 219 214 226 231 232 234 240 248 250 240 233 227 229 231 233 237 242 248 254 257 261 266 270 272 277 280 283 284 287 289 290 291 294 296
Height
10811 10814 10818 10821 10824 10825 10827 10830 10834 10837 10841 10842 10846 10852 10856 10860 10862 10864 10866 10866 10867 10871 10874 10877 10880 10882 10884 10887 10889 10890 10890 10890 10891 10892 10893 10893 10894 10895 10895 10894 10893 10893 10891 10890 10889 10888 10887 10885 10884
10798 10802 10805 10808 10811 10810 10812 10817 10822 10825 10827 10829 10833 10839 10845 10848 10850 10854 10856 10858 10857 10860 10865 10868 10870 10872 10875 10877 10879 10881 10882 10883 10884 10885 10886 10886 10887 10887 10888 10887 10886 10885 10885 10883 10881 10880 10879 10877 10876
10785 10789 10793 10797 10796 10793 10798 10804 10808 10813 10815 10817 10820 10825 10832 10835 10838 10841 10845 10847 10848 10850 10854 10858 10861 10862 10864 10867 10870 10872 10873 10875 10876 10876 10878 10878 10879 10880 10880 10879 10878 10877 10876 10875 10873 10871 10869 10867 10866
10771 10776 10780 10783 10778 10779 10783 10791 10794 10801 10802 10804 10807 10812 10815 10821 10824 10827 10831 10835 10838 10840 10842 10845 10850 10852 10854 10856 10859 10862 10864 10865 10866 10867 10869 10870 10871 10872 10871 10871 10871 10869 10867 10866 10864 10861 10860 10858 10857
10759 10762 10767 10765 10761 10763 10770 10777 10779 10784 10787 10789 10794 10797 10801 10805 10809 10814 10817 10820 10825 10829 10832 10833 10837 10842 10844 10846 10849 10852 10854 10856 10857 10858 10860 10861 10862 10862 10862 10862 10861 10860 10859 10857 10854 10852 10850 10848 10846
10748 10748 10754 10750 10747 10751 10757 10764 10766 10769 10774 10777 10782 10785 10786 10789 10795 10799 10804 10806 10811 10815 10820 10822 10826 10830 10833 10836 10839 10842 10845 10846 10847 10848 10850 10852 10853 10853 10853 10852 10851 10850 10849 10847 10844 10842 10840 10838 10835
10733 10736 10740 10737 10733 10738 10742 10751 10752 10756 10761 10766 10770 10771 10773 10775 10781 10786 10790 10793 10797 10803 10805 10810 10816 10819 10823 10825 10828 10831 10834 10836 10837 10838 10839 10841 10843 10843 10844 10844 10842 10840 10839 10836 10834 10832 10830 10828 10824
10720 10727 10728 10722 10718 10722 10732 10738 10743 10746 10751 10758 10760 10761 10762 10764 10769 10774 10777 10781 10783 10788 10793 10798 10802 10808 10811 10814 10818 10821 10824 10826 10827 10827 10828 10830 10832 10833 10834 10835 10833 10831 10828 10826 10824 10823 10821 10817 10813
10710 10716 10712 10708 10707 10711 10723 10731 10735 10737 10738 10744 10747 10749 10752 10755 10760 10763 10766 10768 10772 10774 10780 10787 10791 10795 10799 10804 10807 10810 10812 10815 10817 10818 10819 10820 10821 10823 10825 10824 10822 10820 10818 10816 10814 10812 10811 10806 10802
10701 10703 10697 10696 10699 10704 10711 10719 10723 10725 10725 10728 10732 10736 10739 10743 10748 10751 10753 10755 10757 10763 10769 10774 10779 10785 10789 10792 10794 10797 10800 10803 10805 10806 10808 10810 10811 10812 10813 10813 10810 10808 10807 10804 10802 10801 10798 10794 10789
10690 10688 10688 10687 10690 10695 10698 10705 10713 10714 10713 10713 10718 10722 10726 10731 10734 10737 10740 10741 10744 10749 10755 10761 10765 10771 10775 10780 10783 10786 10788 10790 10792 10795 10797 10799 10799 10800 10801 10801 10799 10797 10794 10793 10791 10789 10786 10783 10777
10680 10677 10679 10678 10681 10685 10686 10693 10699 10703 10695 10700 10706 10711 10713 10717 10722 10726 10728 10732 10734 10736 10740 10747 10753 10759 10763 10769 10771 10773 10776 10778 10779 10782 10785 10787 10788 10788 10788 10788 10786 10785 10782 10780 10778 10776 10773 10769 10765
10671 10666 10668 10668 10669 10672 10677 10680 10687 10693 10685 10691 10697 10701 10702 10705 10708 10713 10716 10719 10721 10723 10729 10734 10740 10746 10751 10755 10757 10759 10762 10763 10766 10771 10774 10775 10775 10774 10775 10775 10774 10773 10769 10768 10765 10763 10761 10757 10753
10658 10657 10659 10657 10656 10661 10667 10669 10681 10673 10675 10681 10687 10689 10691 10694 10696 10700 10702 10703 10708 10710 10715 10722 10727 10732 10737 10739 10742 10747 10749 10751 10754 10758 10760 10761 10761 10760 10762 10761 10760 10759 10756 10754 10753 10751 10748 10745 10740
10646 10648 10647 10644 10645 10652 10655 10663 10667 10657 10669 10672 10672 10676 10678 10681 10686 10686 10689 10690 10693 10695 10702 10707 10715 10721 10724 10727 10730 10734 10736 10739 10743 10746 10746 10748 10748 10747 10748 10748 10746 10744 10743 10741 10740 10738 10734 10732 10728
10629 10633 10632 10632 10636 10641 10644 10653 10648 10650 10655 10660 10660 10664 10668 10671 10672 10674 10675 10677 10679 10683 10688 10697 10705 10709 10712 10715 10720 10721 10724 10728 10730 10731 10732 10733 10734 10735 10734 10733 10731 10730 10729 10728 10726 10723 10721 10718 10716
10610 10618 10621 10622 10622 10626 10631 10643 10632 10637 10642 10646 10649 10652 10654 10656 10659 10659 10663 10665 10664 10668 10672 10684 10692 10696 10702 10705 10708 10711 10714 10717 10718 10718 10718 10719 10720 10720 10719 10718 10717 10716 10716 10715 10712 10708 10706 10704 10702
10599 10605 10607 10608 10605 10610 10616 10628 10624 10625 10632 10636 10638 10641 10642 10642 10643 10647 10651 10654 10652 10653 10657 10667 10675 10683 10690 10694 10697 10701 10702 10705 10707 10707 10708 10708 10707 10706 10705 10704 10703 10703 10702 10701 10698 10695 10692 10690 10689
10583 10588 10592 10591 10587 10588 10601 10618 10619 10614 10620 10622 10624 10625 10627 10628 10628 10632 10637 10641 10640 10640 10645 10652 10660 10668 10676 10681 10686 10690 10692 10695 10696 10697 10697 10696 10695 10694 10692 10692 10691 10691 10689 10687 10685 10683 10680 10677 10675
10566 10570 10572 10574 10572 10579 10585 10607 10606 10605 10606 10607 10609 10613 10613 10614 10614 10616 10620 10625 10625 10627 10632 10637 10644 10652 10661 10667 10673 10679 10682 10682 10684 10686 10687 10685 10684 10683 10682 10680 10680 10679 10677 10675 10673 10671 10668 10666 10664
10548 10550 10551 10554 10555 10563 10571 10590 10588 10593 10595 10595 10594 10594 10596 10599 10600 10600 10603 10608 10609 10612 10617 10623 10630 10637 10646 10653 10660 10667 10669 10670 10674 10676 10675 10674 10673 10672 10671 10670 10669 10667 10664 10663 10661 10659 10658 10655 10652
10532 10529 10530 10534 10539 10547 10546 10568 10577 10575 10577 10580 10579 10577 10576 10580 10584 10585 10588 10593 10594 10596 10602 10610 10618 10624 10632 10639 10645 10653 10658 10660 10663 10665 10665 10664 10663 10661 10660 10659 10656 10654 10653 10651 10649 10647 10645 10643 10640
10513 10513 10511 10512 10514 10520 10531 10528 10566 10557 10555 10553 10555 10557 10561 10562 10567 10570 10572 10578 10579 10581 10587 10596 10604 10611 10618 10626 10632 10641 10643 10648 10652 10654 10653 10652 10651 10650 10649 10647 10645 10644 10642 10641 10638 10636 10633 10630 10627
10497 10495 10492 10488 10488 10500 10505 10497 10543 10535 10535 10530 10530 10537 10541 10545 10549 10555 10557 10566 10567 10570 10575 10581 10588 10597 10604 10612 10619 10627 10632 10638 10641 10642 10642 10641 10640 10640 10638 10636 10635 10633 10632 10629 10627 10624 10621 10617 10613
10475 10471 10467 10466 10466 10480 10474 10469 10514 10511 10510 10513 10502 10510 10519 10527 10532 10540 10547 10552 10555 10559 10563 10569 10577 10585 10592 10599 10607 10614 10621 10626 10629 10631 10631 10630 10629 10628 10627 10626 10624 10623 10620 10617 10614 10611 10607 10602 10597
10456 10448 10444 10439 10447 10449 10441 10460 10483 10478 10479 10476 10481 10485 10502 10515 10519 10528 10535 10539 10543 10546 10552 10559 10567 10576 10583 10587 10594 10601 10609 10615 10617 10619 10619 10618 10617 10617 10615 10614 10613 10611 10607 10604 10600 10596 10591 10585 10579
10436 10425 10414 10413 10413 10413 10419 10435 10446 10443 10442 10451 10458 10465 10476 10493 10506 10514 10524 10527 10532 10536 10541 10548 10555 10563 10570 10577 10583 10590 10596 10601 10605 10607 10607 10607 10605 10604 10603 10602 10601 10597 10595 10591 10586 10580 10574 10568 10561
10410 10401 10392 10383 10385 10384 10396 10407 10411 10420 10423 10423 10433 10447 10457 10475 10495 10501 10511 10518 10522 10526 10532 10538 10545 10550 10557 10564 10572 10578 10584 10590 10594 10595 10595 10594 10593 10592 10591 10590 10587 10584 10581 10576 10570 10563 10556 10548 10541
10386 10377 10369 10364 10361 10361 10370 10377 10384 10391 10391 10399 10409 10426 10441 10461 10481 10489 10498 10505 10512 10516 10523 10529 10535 10540 10546 10553 10560 10568 10575 10580 10582 10583 10583 10582 10581 10580 10579 10576 10574 10571 10567 10561 10554 10547 10539 10530 10520
10378 10366 10354 10347 10341 10344 10346 10352 10353 10356 10359 10379 10398 10413 10430 10449 10469 10478 10487 10493 10501 10508 10514 10522 10526 10530 10535 10542 10549 10557 10565 10569 10571 10571 10571 10570 10570 10568 10565 10563 10560 10556 10550 10545 10537 10529 10520 10510 10500